Location: Casilda
(33.0440°S, 61.1680°W)
Time: 14:45:10
(UTC-03:00)

ISS - Pass Details

Date: 23 January 2021
Orbit: 418 x 421 km, 51.6° (Epoch: 27 January)

Event Time Altitude Azimuth Distance (km) Brightness Sun altitude
Exits shadow 05:19:39 17° 326° (NW) 1,133 -2.1 -11.9°
Maximum altitude 05:22:05 67° 46° (NE) 464 -3.5 -11.4°
Drops below altitude 10° 05:25:28 10° 129° (SE) 1,521 0.6 -10.8°
Sets 05:27:36 0° 131° (SE) 2,392 2.1 -10.4°
